Regional Weather Roundup
Issued by NWS Northern Indiana

Home | Current Version | Previous Version | Graphics & Text | Print | Product List | Glossary On
Versions: 1 2 3 4 5 6 7 8 9 10 11 12 13 14 15 16 17 18 19 20 21 22 23 24 25 26 27 28 29 30 31 32 33 34 35 36 37 38 39 40 41 42 43 44 45 46 47 48 49 50
000
ASUS43 KIWX 131300
RWRIWX

KIWX WEATHER ROUNDUP
NATIONAL WEATHER SERVICE NORTHERN INDIANA
800 AM EST WED DEC 13 2017

NOTE: "FAIR" INDICATES FEW OR NO CLOUDS BELOW 12,000 FEET WITH NO
SIGNIFICANT WEATHER AND/OR OBSTRUCTIONS TO VISIBILITY.

* THESE STATIONS ARE NOT UNDER NWS QUALITY CONTROL. THEY ALSO MAY NOT
  REPORT WEATHER SUCH AS PRECIPITATION OR FOG.

INZ001>027-131400-
NORTHERN INDIANA

CITY           SKY/WX    TMP DP  RH WIND       PRES   REMARKS
GARY*          CLOUDY    27   9  46 S12       29.69F WCI  16
MICHIGAN CITY* CLOUDY    23  10  58 S9        29.71F WCI  13
LAPORTE*       CLOUDY    21  11  67 S9        29.73F WCI  10
KNOX*          CLOUDY    23  12  63 S12       29.75F WCI  12
SOUTH BEND     CLOUDY    20  11  68 S12       29.74F WCI   8
ELKHART*       CLOUDY    19   9  63 S8        29.75F WCI   9
GOSHEN         CLOUDY    20   9  62 S13       29.76F WCI   7
MONTICELLO*    CLOUDY    24   9  53 S8        29.76F WCI  15
ROCHESTER*     CLOUDY    25  14  63 S12       29.76F WCI  14
WARSAW*        CLOUDY    21  10  63 S7        29.77F WCI  13
AUBURN*        CLOUDY    21  10  63 S6        29.80F WCI  14
FORT WAYNE     CLOUDY    20  12  71 S9        29.81F WCI   9
PERU/GRISSOM   CLOUDY    23  10  56 S12       29.78F WCI  11

$$
INZ028>050-131400-
CENTRAL INDIANA

CITY           SKY/WX    TMP DP  RH WIND       PRES   REMARKS
LAFAYETTE      CLOUDY    24  10  55 S7        29.77F WCI  16
KOKOMO*        CLOUDY    22  11  62 S13       29.81F WCI  10
MUNCIE*        CLOUDY    22   8  55 S9        29.83F WCI  12
INDIANAPOLIS   CLOUDY    23   8  52 S9        29.83F WCI  13

$$
MIZ043>046-050>051-056>058-064>065-071>073-077>080-131400-
SOUTHWEST LOWER MICHIGAN

CITY           SKY/WX    TMP DP  RH WIND       PRES   REMARKS
BATTLE CREEK   CLOUDY    18  11  74 S12       29.73F WCI   5
BENTON HARBOR  CLOUDY    21   8  57 S13       29.70F WCI   9
COLDWATER*     CLOUDY    19  10  70 S6        29.76F WCI  10
HILLSDALE*     FLURRIES  18  10  73 S5        29.75F WCI  11
HOLLAND        CLOUDY    19  13  77 S12       29.69F WCI   7
GRAND RAPIDS   LGT SNOW  19  16  88 SE10      29.70F FOG     WCI   7
KALAMAZOO      FLURRIES  18  10  71 S9        29.73F WCI   7
THREE RIVERS*  CLOUDY    19  11  69 S9        29.75F WCI   8

$$
OHZ001>008-015>018-024>025-131400-
NORTHWEST OHIO

CITY           SKY/WX    TMP DP  RH WIND       PRES   REMARKS
DEFIANCE       CLOUDY    18  10  71 S9        29.83F WCI   7
FINDLAY        CLOUDY    19   9  65 S9        29.83F WCI   8
TOLEDO EXPRESS CLOUDY    17  12  80 S6        29.82F WCI   9
TOLEDO METCALF CLOUDY    19  11  70 SW9       29.84F WCI   8
LIMA           CLOUDY    17  11  77 S9        29.83F WCI   6

$$
AND FOR LAKE MICHIGAN COASTAL AND OPEN LAKE BUOY OBSERVATIONS

STATION/POSITION TEMP    WIND        PRES    VSBY  WAVE
                 AIR SEA DIR/SP/G                  HT/PER
                 (F)     (DEG/KT/KT) (MB)    (MI)  (FT/S)
CALUMET HARBOR    25     160/ 11/ 15 1004.6F
MICHIGAN CITY     22     150/ 13/ 16   N/A
BURNS HARBOR      24     170/ 12/ 20 1006.4F
SAINT JOSEPH      21     180/  4/  9 1008.5

$$
&&




USA.gov is the U.S. government's official web portal to all federal, state and local government web resources and services.